OpenBCM V1.08-5-g2f4a (Linux)

Packet Radio Mailbox

IZ3LSV

[San Dona' di P. JN]

 Login: GUEST





  
I0OJJ  > KEPS     05.05.25 02:44l 364 Lines 17237 Bytes #172 (0) @ AMSAT
BID : ORB25125.1
Read: GUEST
Subj: 2Line Orbital Elements 25125.AMSAT
Path: IZ3LSV<IK6IHL<IK7NXU<HB9ON<DK0WUE<PD0LPM<PI8LAP<VE2PKT<I0OJJ<I0OJJ
Sent: 250505/0025z @:I0OJJ.ITA.EU [Rome] obcm1.08-6-g5b69

>From i0ojj%i0ojj.ita.eu@i0ojj.ampr.org Mon May  5 02:29:23 2025
Received: from i0ojj.ampr.org by i0ojj.ampr.org (JNOS2.0p.7) with SMTP
	id AA17031056 ; Mon, 05 May 2025 02:29:23 +0200
Message-Id: <ORB25125.1@obcm.bbs>
>From: i0ojj@i0ojj.ita.eu
X-JNOS-User-Port: Telnet   (obcm @ 44.134.109.10)  -> Sending message

From: I0OJJ @ I0OJJ.ITA.EU (Gustavo)
To:   KEPS @ AMSAT
X-Info: This message was generated automatically


QST de W1STR

AMSAT Orbital Elements for Amateur Satellites in TLE Format
>From Orbital Analysis Office
New England Sci-Tech STEM Education Center
Natick, MA May 05, 2025
To all radio amateurs


These element sets describe the orbits of various satellites 
in use by the amateur radio community. For details see:
www.amsat.org/keplerian-elements-formats/

A daily update of element sets is available at:
www.amsat.org/tle/daily-bulletin.txt
or without bulletin text:
www.amsat.org/tle/dailytle.txt


AO-07
1 07530U 74089B   25124.52117763 -.00000028  00000-0  11496-3 0  9994
2 07530 101.9943 128.4004 0012161 189.1812 340.4484 12.53688823309302
UO-11
1 14781U 84021B   25124.45528666  .00002638  00000-0  28412-3 0  9991
2 14781  97.7518  91.5482 0009520  95.0017 265.2287 14.89272758196266
AO-27
1 22825U 93061C   25124.41304376  .00000211  00000-0  97621-4 0  9993
2 22825  98.7391 185.7836 0007796 212.1182 147.9526 14.30786327648544
FO-29
1 24278U 96046B   25124.30294323  .00000033  00000-0  66777-4 0  9991
2 24278  98.5796  22.9641 0350962  76.6212 287.3797 13.53246103417869
NOAA-15
1 25338U 98030A   25124.84067340  .00000317  00000-0  14800-3 0  9994
2 25338  98.5379 150.8279 0011518 103.3256 256.9210 14.26958281403303
GO-32
1 25397U 98043D   25124.44346083  .00000170  00000-0  93692-4 0  9997
2 25397  98.9684 102.8132 0000936  10.3705 349.7492 14.24305217393140
ISS
1 25544U 98067A   25124.94237398  .00011668  00000-0  21695-3 0  9997
2 25544  51.6370 161.2620 0002285  86.8828 336.9349 15.49353212508453
NO-44
1 26931U 01043C   25124.66964058  .00000286  00000-0  13801-3 0  9999
2 26931  67.0511 220.6840 0005722 272.7156  87.3291 14.31716373232127
SO-50
1 27607U 02058C   25124.50815207  .00001886  00000-0  25287-3 0  9999
2 27607  64.5542 311.8722 0052014 342.4607  17.4699 14.81525720203884
CO-55
1 27844U 03031E   25124.56337127  .00000545  00000-0  25645-3 0  9999
2 27844  98.6771 133.3006 0008442 295.2886  64.7418 14.23966550133513
CO-57
1 27848U 03031J   25124.49500929  .00000467  00000-0  22523-3 0  9992
2 27848  98.6800 133.2660 0008579 315.0167  45.0316 14.23305264133236
RS-22
1 27939U 03042A   25124.86903194  .00002042  00000-0  33143-3 0  9998
2 27939  98.3258 293.4657 0012622 120.7485  15.5700 14.72257846155570
NOAA-18
1 28654U 05018A   25124.80697036  .00000301  00000-0  18305-3 0  9996
2 28654  98.8422 204.6851 0013472 227.4312 132.5724 14.13591249 28692
CO-58
1 28895U 05043F   25124.87381642  .00002804  00000-0  46575-3 0  9991
2 28895  98.2448 268.7912 0015606  63.4323 296.8480 14.70889411 41929
CO-65
1 32785U 08021C   25124.55142994  .00006609  00000-0  48181-3 0  9995
2 32785  97.7816  95.4647 0009281 345.0957  14.9994 15.04040728923666
AAUSAT2
1 32788U 08021F   25124.52222227  .00571240  00000-0  21329-2 0  9995
2 32788  97.5949 122.0652 0009111 140.9980 219.1949 15.86538040927704
CO-66
1 32791U 08021J   25124.45539122  .00014102  00000-0  70021-3 0  9999
2 32791  97.7267 103.7207 0001637 325.7443  34.3684 15.17800724925017
RS-30
1 32953U 08025A   25124.83024403  .00000052  00000-0  30078-3 0  9993
2 32953  82.5023 249.4071 0020482 123.3295 236.9750 12.43163625769098
NOAA-19
1 33591U 09005A   25124.87841831  .00000280  00000-0  17301-3 0  9994
2 33591  98.9991 189.3795 0014863 104.5046 255.7776 14.13355420837063
SRMSAT
1 37841U 11058D   25124.42153227  .00000532  00000-0  14522-3 0  9995
2 37841  19.9734  13.3553 0011723  27.6264 145.1487 14.11423532699997
ZACUBE-1
1 39417U 13066B   25124.41205193  .00006111  00000-0  53504-3 0  9998
2 39417  97.7765  81.6344 0044801 170.6596 189.5468 14.96291400619502
Delfi-N3xt
1 39428U 13066N   25124.25120913  .00009793  00000-0  10041-2 0  9995
2 39428  97.8355  42.3239 0087377 119.4487 241.5484 14.87810217613674
GOMX-1
1 39430U 13066Q   25124.82709013  .00002699  00000-0  42616-3 0  9997
2 39430  97.6880 345.6801 0131566 307.3343  51.5934 14.67506646610167
LO-74
1 39440U 13066AA  25124.40896289  .00005974  00000-0  60922-3 0  9993
2 39440  97.8472  69.2316 0060751 300.5103  59.0125 14.89670486616050
AO-73
1 39444U 13066AE  25124.44070331  .00009165  00000-0  69474-3 0  9990
2 39444  97.7782  86.2345 0042039 147.1772 213.2076 15.01771319618169
DTUSAT-2
1 40030U 14033W   25124.85830017  .00009433  00000-0  62066-3 0  9996
2 40030  98.0535  94.9700 0009417 169.3993 190.7433 15.07757679591522
EO-80
1 40032U 14033Y   25124.48228196  .00008039  00000-0  52877-3 0  9996
2 40032  98.0409  94.2815 0010459 116.8365 243.3932 15.07814781590933
LILACSAT-2
1 40908U 15049K   25124.83717673  .00014553  00000-0  39016-3 0  9996
2 40908  97.5091 144.3390 0007329 291.5473  68.4990 15.38064751532736
IO-86
1 40931U 15052B   25038.81889873  .00001817  00000-0  15548-3 0  9993
2 40931   6.0001 108.1159 0012838 187.7041 172.2889 14.78568669506492
Horyu-4
1 41340U 16012D   25124.09020606  .00029473  00000-0  82945-3 0  9995
2 41340  30.9977  17.0351 0007495  27.1826 332.9210 15.35234154507170
Lapan A3
1 41603U 16040E   25124.85038780  .00005261  00000-0  18554-3 0  9998
2 41603  97.1384 130.8660 0012326  45.1014 315.1225 15.29601409492327
CAS-2T
1 41847U 16066G   25124.21905042  .00001258  00000-0  18964-3 0  9997
2 41847  98.4208 198.9950 0345263 288.5807  67.8178 14.43386430445779
CAS-4B
1 42759U 17034B   25124.83056367  .00067865  00000-0  84286-3 0  9997
2 42759  43.0070 174.2469 0018487  37.7157 322.4999 15.58904204437015
CAS-4A
1 42761U 17034D   25124.82539503  .00067869  00000-0  81118-3 0  9992
2 42761  43.0106 171.7751 0019684  42.4758 317.7625 15.59881411437034
TechnoSat
1 42829U 17042E   25124.72665850  .00004386  00000-0  34263-3 0  9994
2 42829  97.3937 295.1509 0015240  46.4242 313.8246 15.01503007425347
AO-91
1 43017U 17073E   25124.60997036  .00008436  00000-0  43969-3 0  9992
2 43017  97.5292 356.2973 0172754 289.3193  68.9423 15.04167673403804
S-Net D
1 43186U 18014G   25124.48885999  .00007067  00000-0  42124-3 0  9996
2 43186  97.5648  27.7672 0009042   1.1061 359.0187 15.11451482396922
S-Net B
1 43187U 18014H   25124.22897589  .00006879  00000-0  41035-3 0  9997
2 43187  97.5654  27.4802 0009579 356.7711   3.3456 15.11430021396887
S-Net A
1 43188U 18014J   25124.48936476  .00006893  00000-0  41090-3 0  9992
2 43188  97.5662  27.8829 0009516 356.3657   3.7502 15.11456569396922
S-Net C
1 43189U 18014K   25124.29749281  .00006717  00000-0  40071-3 0  9991
2 43189  97.5677  27.7014 0010755 348.1670  11.9306 15.11428426395445
Ten-Koh
1 43677U 18084G   25124.45206909  .00003691  00000-0  29868-3 0  9992
2 43677  98.0909 295.2733 0007495  47.4531 312.7323 15.00401584354825
PO-101
1 43678U 18084H   25124.85838738  .00002878  00000-0  24787-3 0  9999
2 43678  98.1027 299.6286 0009301  49.0779 311.1246 14.98165934355032
QO-100
1 43700U 18090A   25124.57421007  .00000134  00000-0  00000-0 0  9990
2 43700   0.0190 262.0776 0001645 172.6148  20.5078  1.00270562 23584
MinXSS-2
1 43758U 18099A   25124.17905523  .00019559  00000-0  79492-3 0  9993
2 43758  97.5036 190.1248 0010390 281.8883  78.1189 15.24547241351429
AO-95
1 43770U 18099N   25124.43359958  .00012540  00000-0  64470-3 0  9994
2 43770  97.4943 182.9312 0009828 346.0536  14.0424 15.16561490351078
RANGE-A
1 43773U 18099R   25124.85718575  .00005985  00000-0  38463-3 0  9995
2 43773  97.4518 174.2973 0009877 321.5328  38.5196 15.08750642350837
MOVE-II
1 43780U 18099Y   25124.75391140  .00174575  00000-0  18926-2 0  9990
2 43780  97.4675 198.0205 0005292 227.7889 132.2920 15.62949356352186
SNUSat 2
1 43782U 18099AA  25124.66036117  .00008774  00000-0  48547-3 0  9992
2 43782  97.4622 180.1963 0010408 277.1165  82.8883 15.14044778351069
SnugLite
1 43784U 18099AC  25124.40558949  .00012256  00000-0  62533-3 0  9999
2 43784  97.4441 179.4371 0001726 276.5285  83.5752 15.16872000351155
ITASat 1
1 43786U 18099AE  25124.69319761  .00008402  00000-0  48555-3 0  9995
2 43786  97.4597 179.8410 0013388 335.6933  24.3664 15.12467723351031
EAGLET 1
1 43790U 18099AJ  25124.60749407  .00005135  00000-0  33063-3 0  9993
2 43790  97.4795 179.8284 0010659 319.0180  41.0246 15.08740548350645
ESEO
1 43792U 18099AL  25124.50660190  .00001977  00000-0  15326-3 0  9997
2 43792  97.4490 173.4749 0010625 291.3064  68.7027 15.02465799350404
CSIM
1 43793U 18099AM  25124.78974787  .00161773  00000-0  17697-2 0  9991
2 43793  97.4844 200.2720 0007398 229.9686 130.0924 15.62743490352039
JO-97
1 43803U 18099AX  25124.65026801  .00014303  00000-0  66658-3 0  9992
2 43803  97.4685 184.0651 0006059 265.0413  95.0130 15.19981158351314
Suomi 100
1 43804U 18099AY  25124.41052490  .00011334  00000-0  56494-3 0  9998
2 43804  97.4754 183.2235 0010818 271.7719  88.2276 15.17662792351214
ISAT
1 43879U 18111D   25124.30918679  .00025801  00000-0  93062-3 0  9999
2 43879  97.5973  37.9368 0007695 342.0355  18.0611 15.28480569348154
UWE-4
1 43880U 18111E   25124.26371342  .00019695  00000-0  79417-3 0  9998
2 43880  97.5916  36.6130 0011503 349.4398  10.6596 15.24801348348098
Sparrow
1 43881U 18111F   25124.58089144  .00024865  00000-0  86626-3 0  9995
2 43881  97.6111  40.9563 0007714  25.7153 334.4469 15.29623992348286
Prox-1
1 44339U 19036A   25124.60396529  .00013007  00000-0  16775-2 0  9995
2 44339  23.9972 297.9801 0007950  24.3902 335.6970 14.79198091312686
